Wind_Speed
20 21 23 24 25 26 27 28 29 30 32 32 33 34 35 35 35 34 33 33 33 30 26 23 20 20 21 20 21 23 24 21 12 6 3 3 3 3 6 10 10 11 12 13 13 9 6 7 11 16 11 4 3 2 3 2 2 4 4 2 3 2 4 5 7 6 3 6 7 5 3 6 9 5 2 3 2 5 7 8 5 6 9 9 8 7 4 6
20 22 24 25 26 27 27 28 30 31 32 33 34 35 35 35 35 34 34 33 32 28 26 25 21 20 20 19 21 22 22 16 8 8 5 3 3 4 7 9 9 11 12 13 12 9 7 6 7 9 7 3 3 3 3 2 1 3 3 1 3 5 6 6 7 5 4 8 10 8 4 5 8 5 1 4 9 6 7 12 5 7 13 12 11 6 3 11
21 23 24 26 26 26 27 28 30 31 32 33 34 35 35 35 35 35 34 33 31 28 27 26 21 19 19 18 19 19 18 9 5 6 6 3 3 4 6 8 8 10 11 11 10 9 6 3 4 5 5 3 3 3 3 2 1 1 3 2 6 6 5 5 7 7 8 8 10 10 5 3 6 2 1 3 11 10 9 13 7 8 12 12 9 4 7 12
22 23 24 25 25 26 27 28 30 32 33 35 35 36 36 35 34 34 33 33 31 29 29 26 20 19 17 16 17 16 12 6 3 4 5 5 4 5 7 7 8 10 11 11 9 8 6 4 5 6 4 3 3 2 1 2 1 1 3 4 7 3 4 7 8 9 9 6 7 8 5 7 6 2 3 2 8 13 12 11 10 12 12 10 7 6 7 10
22 23 24 24 24 25 26 28 31 32 34 36 36 37 37 35 33 33 33 32 30 28 29 25 20 18 16 15 16 14 8 5 1 4 6 6 6 6 7 8 10 11 11 11 8 7 7 7 7 6 4 2 4 4 2 3 1 1 4 7 7 3 5 8 6 7 7 3 6 7 5 7 3 1 5 5 6 12 14 8 8 11 11 9 7 6 6 8
21 22 23 23 23 24 26 28 31 33 35 36 37 38 37 35 33 32 31 30 28 27 26 23 19 18 16 15 16 12 5 3 4 7 7 6 7 8 8 10 12 12 12 10 8 7 7 7 7 4 3 2 2 1 4 3 1 2 5 7 7 5 6 7 4 7 4 2 8 6 4 4 5 8 5 8 13 17 19 11 5 8 8 6 5 6 8 10
20 21 21 22 23 24 26 28 30 32 34 36 38 38 37 35 32 31 29 28 27 25 23 20 19 18 18 18 14 8 7 3 8 10 5 5 8 9 9 11 12 12 11 10 9 7 5 7 6 1 2 3 2 2 4 3 1 4 5 8 8 4 7 8 7 9 6 7 11 5 4 7 13 10 1 8 18 20 20 12 7 10 7 5 5 8 11 13
19 20 20 21 22 24 26 28 30 32 34 36 37 37 36 34 31 29 27 26 26 24 20 17 19 21 21 17 8 5 5 3 9 9 5 6 8 9 10 10 10 11 9 8 8 4 2 5 3 1 2 3 2 3 4 4 1 5 6 7 8 6 8 10 9 11 11 10 8 4 6 14 17 6 2 16 22 19 15 9 9 10 7 7 9 11 11 12
19 19 20 21 22 24 26 27 29 31 33 36 37 37 36 33 30 28 26 26 25 23 18 15 22 25 18 10 4 4 3 5 8 8 7 7 7 9 10 9 10 11 8 7 7 3 2 2 1 1 2 5 2 3 3 4 2 5 5 6 7 11 12 11 11 13 12 7 4 4 11 16 11 2 7 19 22 18 11 8 9 7 9 10 10 11 11 12
18 18 19 20 22 24 26 27 29 30 32 35 36 36 36 33 29 27 26 26 25 23 18 16 26 24 11 5 5 5 3 6 8 7 8 8 8 9 9 9 10 9 8 7 6 5 3 1 2 1 2 3 2 3 1 1 2 5 4 7 9 13 13 9 11 13 10 8 6 5 13 15 6 4 9 14 14 12 7 9 7 5 10 11 10 11 10 11
17 17 18 20 22 24 25 26 28 29 31 34 35 35 35 31 26 27 27 25 24 22 17 21 27 16 4 3 6 4 3 6 8 7 8 9 9 10 10 10 9 9 8 6 5 5 4 1 2 2 1 1 3 4 3 3 3 3 3 7 10 10 11 9 9 10 6 6 4 3 13 13 4 7 13 14 12 9 7 10 8 5 10 10 11 10 8 10
16 17 18 20 21 23 25 26 27 28 30 33 34 34 33 27 24 27 25 23 23 20 19 25 20 5 1 4 5 1 4 7 9 7 10 12 10 11 11 11 9 9 7 4 5 5 4 2 3 2 2 1 3 4 2 4 3 3 1 5 9 7 9 11 6 5 3 3 6 4 11 10 3 9 15 15 13 11 8 9 10 9 10 10 11 10 7 9
16 17 18 20 21 23 24 25 27 28 30 32 33 33 30 24 24 26 23 21 22 22 24 21 8 3 4 3 0 2 5 8 8 7 12 13 10 11 11 10 9 9 6 4 5 5 5 1 4 4 3 2 2 4 2 2 2 4 0 1 6 7 7 8 3 5 5 4 6 6 9 13 10 11 12 13 12 10 9 9 11 11 9 10 10 9 9 10
17 18 19 20 21 23 24 25 27 28 30 31 31 31 28 23 24 25 20 18 24 26 19 8 4 3 4 1 3 1 4 9 8 8 13 13 12 12 9 8 8 7 7 6 6 5 5 1 3 2 1 2 3 4 6 5 3 3 2 1 3 5 6 7 4 6 7 4 6 5 7 13 18 15 8 9 8 6 9 11 10 10 10 10 10 10 10 11
18 18 19 20 21 22 24 25 27 28 29 30 31 29 26 23 24 23 15 18 29 22 5 5 5 3 4 1 2 0 4 8 9 11 13 12 12 10 8 11 9 7 7 7 6 5 4 0 2 2 1 1 2 4 5 5 4 3 3 4 3 2 7 10 6 3 4 5 6 4 8 12 19 19 7 3 2 5 9 13 11 11 12 11 11 10 10 12
18 19 19 20 22 23 24 25 27 27 28 30 30 27 23 22 23 17 11 21 28 12 5 4 4 3 4 2 2 2 4 7 13 15 13 12 10 7 9 11 7 5 6 5 5 4 2 2 2 1 0 3 4 3 4 4 4 3 3 5 6 5 8 10 6 4 4 4 4 2 7 13 17 20 17 6 4 6 10 14 14 12 12 12 11 10 10 12
18 19 20 21 22 22 23 25 26 27 28 29 30 26 19 21 21 12 10 22 19 4 6 5 3 3 3 1 2 5 5 10 17 15 11 10 8 7 8 6 3 5 6 3 3 3 2 3 2 2 2 4 2 3 6 5 5 5 3 4 6 6 7 8 9 6 1 2 3 3 8 16 19 21 28 19 5 7 11 14 16 13 11 12 11 11 11 12
18 19 21 21 22 22 22 23 24 26 27 28 29 22 16 21 17 7 13 21 10 1 4 5 6 4 0 2 2 7 11 16 18 11 8 8 5 6 5 2 2 6 6 4 4 4 3 2 1 1 4 4 3 6 4 5 5 6 6 5 7 6 7 8 9 7 7 8 7 5 10 20 22 21 28 26 6 6 12 15 15 12 12 13 11 11 12 12
18 19 21 21 22 22 22 22 22 23 26 29 27 15 13 21 12 4 16 20 8 2 2 4 5 2 4 5 3 11 17 16 12 5 5 7 5 5 4 3 4 5 5 4 5 4 2 3 4 3 5 5 5 2 4 5 4 7 7 6 8 9 10 12 11 8 7 11 12 9 12 18 21 23 28 28 14 6 13 14 12 10 11 12 11 11 12 13
19 20 20 21 22 21 21 20 18 20 23 27 25 12 10 15 7 5 17 14 4 1 3 3 1 2 5 5 6 15 16 9 4 2 6 8 6 4 3 4 6 6 5 2 5 3 3 4 3 4 5 7 8 7 6 3 1 5 7 7 9 8 12 14 14 12 2 3 13 11 12 18 20 24 27 26 22 17 16 17 15 11 10 11 12 13 14 14
19 20 20 21 22 21 20 16 15 16 19 23 23 12 3 3 4 3 9 7 2 1 2 4 2 4 7 7 10 11 6 3 2 2 6 8 6 4 3 4 7 6 2 1 4 3 5 4 6 8 8 9 8 7 5 1 3 4 5 7 9 6 11 15 13 14 3 2 12 11 9 17 20 25 26 23 24 22 18 17 18 16 13 12 11 14 14 12
19 20 20 20 21 20 18 13 12 13 16 20 22 13 4 4 2 2 2 4 6 2 2 4 2 4 8 6 7 5 1 4 6 5 6 9 7 4 3 4 6 5 3 2 3 5 4 3 10 9 5 4 5 6 4 2 5 5 4 5 7 5 8 12 11 13 4 4 9 11 7 15 22 26 25 22 21 19 17 16 17 17 15 13 12 11 11 12
19 19 19 20 20 19 15 9 10 13 14 20 20 11 4 2 2 3 2 1 7 5 2 1 1 3 5 1 3 4 3 4 5 7 7 9 6 2 1 3 4 6 4 4 3 4 4 7 9 4 3 2 4 5 4 4 2 5 4 4 7 8 6 7 9 12 8 4 11 9 5 11 20 23 21 22 20 16 18 18 16 13 10 12 12 8 9 13
19 18 18 20 20 18 13 6 7 10 12 17 18 12 6 2 3 3 2 1 4 5 2 2 2 1 2 1 4 5 2 1 3 6 7 6 4 1 1 1 2 4 3 1 1 4 8 11 5 3 4 4 3 5 6 6 4 3 6 6 7 10 9 8 9 10 10 13 14 7 4 7 13 20 18 17 18 17 18 19 19 14 6 8 10 9 9 11
18 17 17 19 19 18 11 4 6 8 6 10 13 11 8 5 1 5 3 2 3 5 3 2 1 0 2 3 7 4 0 2 3 4 6 4 2 2 2 1 1 3 7 3 2 5 10 8 2 4 2 1 1 6 6 4 5 4 5 9 10 11 11 10 10 8 6 12 11 4 4 5 8 18 19 15 18 19 20 20 24 21 11 6 7 9 9 9
17 16 16 17 18 17 8 2 7 7 3 6 8 10 11 8 0 7 3 4 2 4 2 1 1 2 4 5 6 2 2 3 1 2 5 4 2 1 2 3 1 3 7 2 1 4 5 4 3 3 2 4 3 5 5 2 1 5 4 6 8 8 7 9 10 5 3 10 12 6 7 8 7 16 21 18 20 21 21 21 22 21 16 10 7 8 10 12
17 16 15 15 17 15 6 2 7 6 3 4 8 12 12 10 1 7 1 5 1 2 1 1 0 3 4 5 5 4 1 6 3 5 5 4 4 2 1 4 3 4 3 2 3 3 3 7 6 4 3 4 4 5 4 5 3 5 6 2 5 8 8 10 9 6 5 9 15 12 8 7 8 15 19 16 19 21 18 19 20 17 15 13 12 11 12 12
16 15 14 13 14 12 6 4 6 4 4 4 10 13 13 10 1 4 3 4 2 0 1 1 0 2 4 5 5 3 3 6 3 3 5 4 4 3 2 4 3 7 4 2 4 5 1 7 8 4 4 3 4 5 4 6 3 8 8 5 7 9 8 8 8 9 8 6 13 13 4 4 9 12 12 10 14 18 16 17 17 12 13 14 13 13 13 12
16 15 14 12 11 9 6 6 4 5 2 5 10 14 13 7 1 3 5 1 2 2 1 1 1 2 6 6 4 2 2 4 1 4 7 5 2 2 2 3 3 5 6 3 6 7 2 4 3 1 3 5 5 4 5 5 3 8 7 6 6 6 6 7 9 9 6 5 14 15 5 6 10 10 9 9 11 12 12 12 10 11 13 13 13 14 14 12
15 14 14 12 9 7 6 4 1 2 3 7 11 13 10 4 3 5 3 3 1 1 1 2 1 2 6 7 5 4 4 3 2 4 6 3 4 4 2 1 3 2 6 2 5 7 5 3 3 2 4 5 1 4 5 7 5 6 6 5 5 6 5 6 7 3 1 6 14 14 9 8 11 11 8 6 8 9 9 8 9 11 12 13 13 13 14 13
14 13 13 10 7 6 5 2 1 3 6 7 8 8 6 3 4 3 4 4 1 2 1 2 2 3 6 3 3 5 4 4 5 6 5 4 6 7 5 5 4 3 4 4 5 6 7 5 3 2 1 4 6 7 2 3 4 4 5 5 5 7 5 4 4 1 1 8 10 10 8 7 11 11 6 7 12 14 12 9 8 9 10 12 12 13 14 14
13 11 10 8 5 4 4 4 5 7 7 4 4 3 4 3 2 2 5 4 2 2 1 0 1 3 4 2 1 3 4 3 3 4 4 4 4 5 4 3 3 4 4 4 6 7 5 5 3 1 3 6 7 7 8 8 6 5 5 4 5 5 4 5 5 1 5 10 8 10 9 7 13 13 11 13 14 11 9 9 8 7 9 11 14 15 14 14
10 8 7 6 5 5 4 6 8 9 7 2 2 4 6 3 3 4 3 3 2 1 1 1 1 2 4 3 2 3 2 1 2 4 3 2 3 4 3 3 4 2 3 4 7 7 4 2 3 4 2 4 7 6 6 7 6 8 4 2 4 5 5 7 6 5 8 9 10 13 13 12 13 10 10 9 6 6 7 10 10 9 10 13 15 16 16 17
7 5 4 4 4 5 3 5 7 6 4 1 3 4 3 2 6 3 3 5 4 2 1 1 2 4 2 1 2 3 3 2 3 5 4 3 4 4 3 6 8 3 1 4 5 4 5 5 2 1 1 4 7 4 1 5 8 7 1 1 4 4 5 6 5 7 11 10 12 13 10 9 9 8 7 4 3 5 10 13 14 15 15 16 16 16 18 19
4 3 4 4 4 4 3 5 6 3 1 2 5 3 1 5 5 2 3 5 2 3 2 0 2 4 3 2 2 2 3 1 3 3 3 4 3 3 2 5 8 5 2 3 4 2 5 8 4 1 1 3 5 2 0 4 8 5 0 2 4 3 5 7 8 13 15 13 10 8 8 7 9 12 8 8 10 14 18 19 19 20 20 19 18 17 18 18
4 4 4 5 5 4 4 5 5 1 2 4 4 2 4 5 4 3 4 2 1 1 2 4 4 3 3 3 2 2 2 1 2 3 2 3 2 1 2 3 5 5 2 1 3 2 3 8 6 6 7 4 7 4 5 3 6 5 3 3 4 6 8 7 9 13 13 13 9 7 11 9 11 13 6 11 18 21 23 22 21 21 21 21 18 16 17 18
5 4 4 5 5 5 5 3 2 2 2 5 3 4 4 4 4 4 2 1 1 3 4 3 1 2 1 2 2 3 3 3 2 3 2 2 2 2 3 1 2 4 2 0 1 1 3 10 14 11 8 1 3 7 9 4 3 3 3 5 6 8 6 4 8 8 8 11 8 8 16 14 12 10 5 14 23 25 24 23 21 23 25 23 18 15 16 17
5 3 4 5 5 4 3 2 3 1 3 4 3 4 3 3 3 2 2 2 1 3 5 1 2 2 2 1 3 3 2 3 3 2 1 1 0 3 4 0 3 5 6 2 0 2 3 9 15 7 4 6 7 8 7 4 1 2 3 5 6 6 5 4 7 9 9 10 8 9 15 13 10 7 9 19 26 25 21 18 19 23 23 22 20 20 21 19
5 1 3 4 5 4 3 3 2 2 4 3 4 3 2 3 2 2 2 2 1 2 2 3 2 1 2 3 2 3 1 1 1 1 1 1 1 3 4 1 3 7 8 3 2 3 2 4 12 7 7 12 10 3 2 5 6 5 5 3 2 4 6 4 5 8 9 10 11 10 10 9 7 8 16 23 24 19 16 15 17 19 17 15 16 18 19 19
5 1 2 3 4 5 5 3 1 3 1 3 4 3 1 1 2 3 3 1 1 2 1 3 1 0 2 2 2 1 0 2 3 2 1 2 2 2 3 1 1 4 6 4 3 1 2 2 9 11 12 13 8 2 4 6 9 9 8 6 4 2 4 6 6 8 7 8 10 8 9 10 7 10 17 21 18 13 14 19 19 15 12 12 13 14 15 16
3 1 2 4 6 7 6 3 2 2 2 2 2 2 1 0 1 2 4 2 1 1 1 3 3 2 2 1 1 1 1 1 3 2 3 2 1 2 1 0 1 3 3 5 4 1 0 1 6 11 10 9 8 2 2 8 9 6 4 4 5 5 6 8 8 7 5 7 10 9 12 12 6 7 12 14 14 14 17 21 17 11 10 12 12 12 13 14
2 3 2 5 8 7 5 2 1 2 2 1 2 3 1 1 1 1 2 2 1 1 1 2 2 2 3 2 2 2 0 1 3 3 3 2 0 2 2 2 3 2 2 2 4 2 2 1 4 9 9 12 14 10 9 9 5 3 3 3 5 6 6 6 9 9 7 10 11 10 14 11 3 5 10 12 15 17 18 18 12 8 9 11 12 12 13 14
2 2 2 4 5 4 3 1 2 1 2 2 2 2 1 0 1 1 1 1 1 1 2 1 2 1 1 1 1 2 0 1 3 2 1 1 2 4 4 2 1 2 3 2 4 2 2 0 2 6 10 12 12 6 4 2 3 3 5 4 5 6 6 7 9 9 8 10 10 9 13 8 3 6 11 14 17 19 19 15 7 7 10 9 11 12 12 13
1 1 2 2 3 2 2 3 3 2 4 2 2 2 1 1 1 1 1 0 0 2 1 0 1 0 1 2 2 2 2 1 1 2 1 1 3 6 4 4 5 2 2 1 3 2 1 1 3 4 10 11 8 4 3 4 6 5 7 8 8 11 13 12 9 8 8 10 12 12 12 9 9 11 13 16 20 22 21 15 7 9 10 8 10 11 11 13
2 1 1 2 1 1 1 2 3 3 3 1 1 2 2 1 2 2 1 1 1 2 2 1 1 2 1 2 2 0 1 1 1 1 2 0 1 4 2 7 5 1 2 6 5 1 2 2 2 1 7 11 10 8 8 9 8 7 9 12 13 15 18 15 9 9 10 11 14 13 13 14 16 16 16 19 22 20 20 17 12 11 9 7 10 11 10 12
2 0 0 1 3 1 0 1 2 2 3 2 1 2 3 3 1 1 1 2 1 2 2 1 1 2 2 2 2 1 1 0 1 1 1 2 1 2 2 6 3 4 6 7 2 3 0 3 3 5 8 11 11 10 12 12 10 11 13 13 13 17 19 14 8 9 12 12 13 13 17 21 20 18 19 21 20 19 19 18 15 13 11 10 9 10 11 13
2 1 2 1 1 0 1 2 1 1 1 3 2 2 4 3 1 0 1 1 1 2 3 2 2 1 2 2 1 1 1 1 2 2 2 2 2 3 3 1 3 6 4 2 2 3 2 5 4 7 12 15 13 12 14 13 12 15 16 14 16 20 18 13 11 15 15 13 11 12 19 24 22 20 21 21 20 18 17 16 16 15 13 12 10 11 15 17
2 1 1 1 0 2 1 2 5 3 2 3 2 1 4 4 3 2 1 1 1 1 2 1 2 1 3 4 3 0 1 2 3 2 2 2 3 6 5 1 2 2 1 2 3 2 2 7 7 8 14 17 12 9 13 13 13 16 14 15 19 21 18 15 17 19 16 14 14 16 21 25 21 19 21 21 19 17 16 18 18 16 14 12 11 14 19 21
2 1 1 0 1 2 0 1 6 6 4 4 2 2 5 6 6 3 1 1 1 2 1 2 2 2 2 4 4 1 1 1 3 2 0 1 3 3 4 3 3 1 3 4 4 1 2 5 7 6 12 17 12 9 12 13 14 14 13 16 22 22 19 17 18 18 16 17 20 22 25 25 19 16 18 19 17 16 18 19 18 16 15 13 13 17 21 22
2 2 2 1 1 1 2 1 5 6 4 3 3 3 4 7 7 3 1 2 2 1 1 3 5 5 3 2 4 3 4 4 3 3 1 1 3 1 1 3 2 2 4 4 3 3 3 5 7 6 9 14 13 10 11 13 14 15 15 19 23 21 16 14 15 16 16 19 22 24 24 20 15 15 17 18 18 18 19 21 20 17 14 13 16 22 23 22
3 3 4 3 1 2 2 1 3 4 3 3 4 3 4 7 8 4 1 0 2 3 4 6 7 5 3 3 4 5 6 5 5 6 4 3 3 2 2 3 3 5 7 4 2 3 2 4 6 5 6 10 11 12 14 15 16 16 16 19 19 15 12 13 15 17 19 21 23 21 17 12 12 16 18 20 21 21 21 21 18 13 12 16 21 24 23 22
5 3 5 4 1 3 3 1 2 3 3 4 5 4 3 6 7 7 3 1 3 1 4 8 8 4 3 4 6 7 7 6 6 6 5 5 6 5 5 6 6 5 5 4 3 2 2 3 4 4 4 8 12 14 16 15 14 11 11 14 15 14 16 17 17 18 21 20 17 14 12 13 16 19 20 21 22 23 22 17 12 13 16 19 22 23 22 22
Wind_Direction
26 26 24 23 22 20 19 18 17 14 12 8 5 2 360 357 354 352 349 349 349 348 353 357 357 354 350 349 347 340 337 342 354 18 42 53 13 343 329 330 335 332 329 326 331 342 352 7 0 358 6 28 18 351 5 8 61 52 79 81 301 223 212 195 195 211 238 288 279 290 249 223 279 294 285 320 255 250 276 267 244 262 264 247 258 298 312 173
24 23 21 21 19 18 18 17 14 11 8 4 2 359 357 356 352 350 348 348 348 346 350 354 355 354 353 352 345 340 339 345 24 44 34 51 32 355 330 330 333 327 329 332 342 4 17 3 351 4 22 21 339 352 0 338 60 85 117 158 249 211 217 194 202 223 229 278 284 291 276 234 265 277 358 303 282 290 292 277 245 248 266 262 263 276 218 174
23 21 20 19 17 17 16 14 11 8 5 2 360 357 356 354 351 349 347 347 346 345 348 352 353 353 356 352 345 340 338 353 50 23 7 23 16 355 339 332 329 327 335 339 342 3 16 352 356 32 42 11 337 6 17 348 317 165 138 255 241 221 250 224 219 237 237 266 286 288 296 264 256 240 136 278 292 295 273 271 257 245 259 262 256 222 195 182
21 18 18 17 16 16 13 11 8 5 2 360 357 356 355 354 351 348 345 345 345 345 349 353 352 353 357 353 348 338 340 31 56 333 352 7 1 355 345 329 328 331 336 342 345 356 9 26 38 48 47 355 327 16 19 290 297 161 157 219 232 213 292 252 225 245 250 248 262 278 326 298 270 179 219 256 305 295 272 256 237 243 253 257 249 208 195 188
18 16 15 15 14 13 10 7 5 3 1 358 356 355 354 353 351 347 344 344 343 345 351 356 355 356 359 358 351 332 345 58 346 325 353 354 356 351 345 334 332 334 338 344 348 6 25 40 50 45 40 344 333 15 267 255 116 190 228 234 240 198 274 267 234 253 256 221 255 274 291 283 290 234 234 208 247 270 270 249 205 230 243 247 238 203 196 197
15 13 13 12 12 9 6 5 3 2 359 356 355 353 354 353 351 348 344 341 341 346 351 359 3 3 3 359 349 338 23 84 313 338 337 338 357 352 348 339 334 336 340 343 352 23 33 29 39 34 21 346 329 332 259 271 111 252 270 267 262 215 243 275 274 273 269 242 263 260 268 292 297 282 245 207 231 249 261 264 233 241 236 229 221 180 194 207
11 10 10 9 8 5 3 2 1 359 357 355 353 353 353 352 351 347 343 340 338 344 350 360 7 4 359 355 348 358 63 61 334 352 346 350 355 349 347 338 336 335 340 350 6 29 37 30 29 9 10 353 309 257 269 298 187 223 271 289 288 256 242 266 281 281 277 253 256 266 331 297 269 273 285 240 249 251 260 274 270 260 239 208 209 201 207 209
7 7 8 6 4 2 1 360 359 357 355 354 352 352 351 351 351 345 342 338 335 340 344 354 1 352 345 347 353 14 43 355 344 1 4 355 343 342 343 337 337 336 350 9 14 33 51 43 28 5 5 324 301 279 304 334 275 205 244 283 302 299 272 280 289 283 280 259 251 272 277 260 257 269 280 261 264 263 266 273 258 257 251 227 226 226 218 213
4 4 5 4 1 359 358 356 356 354 353 352 351 350 350 352 351 345 341 335 332 333 331 339 347 342 335 340 36 53 0 324 340 350 347 341 332 339 339 337 336 339 1 8 15 54 37 34 323 24 291 285 326 305 329 6 296 209 241 287 299 298 294 299 295 285 289 279 243 246 257 256 252 274 259 252 259 270 280 270 252 247 250 243 236 231 219 217
1 1 2 1 358 355 353 352 352 351 351 351 351 351 350 352 351 343 339 332 328 325 321 327 335 339 334 338 63 70 330 324 340 340 335 330 328 337 337 337 332 340 356 345 6 54 45 112 199 126 220 276 341 283 225 121 244 205 251 291 284 290 294 297 289 286 299 290 262 236 266 268 219 177 254 249 250 263 273 270 264 236 247 250 246 239 219 219
359 359 359 356 353 351 349 348 348 348 349 349 351 351 350 352 349 342 337 330 325 321 319 325 332 341 341 13 79 78 320 338 346 343 337 332 332 337 338 336 329 338 348 339 5 44 47 112 168 109 166 296 313 285 227 201 264 236 261 296 289 300 299 289 284 293 314 297 287 226 267 278 169 191 245 254 257 250 244 269 283 253 252 257 254 253 225 224
357 356 355 352 349 347 345 343 343 345 346 349 352 351 349 351 347 341 336 330 328 325 324 327 334 358 48 49 92 42 357 1 348 351 352 343 338 339 339 331 324 333 335 340 5 21 24 40 118 144 225 261 314 307 244 218 284 269 222 294 299 342 315 292 290 310 349 305 325 332 289 294 186 213 239 249 258 257 257 269 279 265 259 263 259 261 243 237
354 354 352 348 345 343 341 339 339 342 345 349 352 350 348 349 346 339 333 333 334 330 326 329 345 106 92 70 340 334 34 10 352 2 357 345 336 336 334 325 322 331 329 336 343 349 357 356 140 177 215 130 267 285 295 288 324 294 72 246 308 353 308 290 311 334 344 310 346 4 309 302 282 253 237 241 250 257 272 263 263 269 263 265 261 258 253 247
352 352 348 344 341 339 337 337 338 341 344 348 351 350 346 347 343 334 331 335 335 331 327 349 70 97 97 113 272 32 37 2 357 352 348 341 333 334 336 336 332 327 321 325 326 337 353 290 152 126 179 158 243 296 329 340 1 308 299 45 351 338 287 295 308 324 333 315 21 26 290 291 296 295 255 241 256 240 264 264 254 264 263 262 261 257 256 250
350 347 344 341 338 337 337 336 338 341 343 346 350 349 345 345 340 330 328 333 334 335 352 80 62 78 91 22 287 353 339 349 355 343 341 339 337 339 338 333 325 319 315 319 329 333 344 349 114 78 261 288 42 14 332 329 0 3 342 324 334 300 285 304 293 253 279 294 21 20 285 290 295 303 292 192 189 206 254 271 260 257 259 261 264 260 260 256
344 341 339 338 337 338 337 336 338 340 342 346 350 349 344 345 338 324 321 333 335 347 94 68 26 87 87 7 312 343 326 336 340 336 334 336 339 335 329 327 324 334 320 311 330 327 344 54 57 74 279 15 53 49 0 357 342 0 24 306 297 300 303 318 300 230 219 277 351 316 272 290 294 302 299 262 188 228 260 276 274 265 260 263 265 263 263 266
338 335 335 338 340 340 338 337 337 340 343 346 350 348 345 346 338 316 321 339 339 11 86 50 25 73 79 28 341 335 319 318 327 334 340 345 348 342 337 342 5 352 337 328 341 336 7 37 350 309 39 41 80 64 19 2 324 325 2 293 279 279 289 311 300 286 242 217 265 267 263 279 289 297 295 290 254 239 264 276 281 279 269 266 265 267 267 268
332 331 335 339 341 341 339 337 338 341 342 345 349 345 344 351 345 311 332 348 352 56 65 36 27 67 45 5 348 303 308 314 321 332 347 353 359 1 360 26 32 3 7 20 13 15 2 10 41 350 7 3 19 47 8 305 303 309 310 302 298 287 272 278 280 296 321 291 268 277 277 281 291 295 292 296 295 217 262 278 285 285 277 272 270 270 269 270
328 331 336 339 342 342 339 338 341 343 342 347 351 346 352 0 358 308 342 3 35 28 347 345 17 101 280 314 287 302 309 306 310 314 341 352 352 359 24 58 38 33 39 15 351 11 17 10 30 7 339 320 315 330 256 258 279 285 287 288 294 301 291 281 276 276 294 298 291 282 280 285 294 295 291 298 307 269 272 284 285 280 274 275 273 271 270 271
326 332 336 338 342 342 340 340 341 346 347 352 359 6 9 7 15 330 341 3 70 255 293 292 335 214 291 315 307 319 320 298 291 332 347 352 347 351 28 43 26 35 61 19 312 337 65 27 338 280 272 273 280 265 240 229 167 271 287 283 280 289 290 288 290 289 267 284 289 285 284 288 291 291 289 298 306 300 293 294 291 283 272 271 271 272 274 271
326 332 336 338 340 341 341 338 341 353 355 3 21 42 64 39 50 340 326 331 291 280 299 267 249 254 270 286 304 322 334 306 303 340 360 355 352 354 343 26 22 7 30 188 287 332 51 18 282 250 238 244 263 267 259 223 159 226 267 282 290 281 277 285 289 292 299 168 281 294 298 292 291 289 290 297 300 299 299 296 294 291 283 279 276 275 277 278
326 331 336 336 338 342 342 339 342 348 356 18 45 69 119 127 112 234 265 307 300 330 332 286 284 283 270 270 300 314 28 358 322 315 8 4 0 7 331 32 33 326 322 42 349 348 11 296 260 251 226 215 259 272 274 237 171 197 245 274 293 282 276 288 290 292 300 151 276 304 315 294 288 286 290 294 290 292 294 289 288 287 285 284 280 279 285 293
326 330 335 335 336 342 343 343 338 342 6 38 60 76 90 102 225 233 153 287 291 304 334 298 199 300 303 284 336 348 32 31 321 309 357 4 358 30 343 25 11 310 331 45 14 338 315 266 252 236 156 179 266 291 306 294 181 184 236 272 282 283 288 292 297 305 314 280 275 290 295 285 286 286 289 288 286 290 291 288 284 274 265 275 284 295 296 292
324 328 334 334 334 341 343 334 343 357 26 51 63 67 63 19 268 212 160 165 296 295 271 238 176 211 288 307 349 359 44 96 259 301 358 15 347 331 267 4 5 314 293 124 148 261 269 266 270 88 128 182 252 311 321 306 297 207 214 232 258 276 275 268 293 317 320 295 284 288 272 261 276 282 284 287 291 295 294 295 294 282 254 266 288 297 286 286
322 325 332 333 331 341 341 312 358 12 28 50 53 42 33 14 271 184 148 55 301 293 296 262 186 205 297 339 340 336 4 295 244 287 341 17 353 322 320 337 81 300 278 244 181 256 267 267 331 64 87 78 355 301 298 283 301 298 226 217 233 259 271 277 299 329 333 294 293 332 299 252 262 278 282 288 292 295 297 299 299 300 305 300 296 298 305 326
320 321 330 332 328 340 345 298 354 2 33 55 33 6 6 11 22 182 133 48 278 286 339 212 188 1 352 347 331 355 63 315 282 14 360 21 23 10 329 320 53 298 278 249 186 260 286 308 44 58 312 342 345 286 280 204 293 300 242 202 223 248 268 280 291 308 299 281 288 303 282 270 270 275 278 284 288 289 292 294 296 302 315 338 354 350 354 0
318 318 328 331 328 343 3 319 337 356 61 34 1 350 349 357 358 191 132 28 304 267 8 286 285 30 5 332 335 44 10 296 340 34 28 19 348 23 338 306 332 302 279 52 338 263 296 321 341 9 343 344 328 295 262 161 149 264 252 247 282 280 281 280 282 274 253 276 285 276 262 268 270 269 272 277 282 283 285 290 292 301 326 2 22 20 14 8
315 315 324 328 326 339 1 338 342 52 84 341 338 340 341 349 329 175 58 13 289 66 77 313 55 51 350 335 3 59 277 306 3 336 336 0 346 22 336 281 271 286 287 81 299 276 272 300 301 338 0 323 274 263 216 156 168 263 268 286 285 278 277 277 277 272 268 284 282 275 264 269 265 266 273 272 274 281 285 286 292 320 357 16 16 8 8 4
313 312 317 322 319 324 341 346 16 87 66 319 331 333 336 345 328 89 62 275 280 46 133 2 52 350 345 354 12 29 320 352 43 296 330 2 359 39 317 256 185 282 288 182 249 273 274 253 240 5 313 264 255 251 192 162 237 276 291 299 287 281 266 259 263 271 283 270 268 276 285 273 273 273 278 276 268 277 286 289 317 2 8 5 358 354 354 351
310 309 310 315 317 316 326 341 58 131 294 310 326 332 340 359 59 43 352 248 275 332 208 45 28 325 4 10 344 349 14 356 323 336 354 349 338 6 330 305 100 297 298 292 258 270 297 293 192 193 250 217 309 306 199 189 251 299 327 321 312 303 277 259 263 268 30 253 262 276 274 263 276 275 264 266 277 296 308 318 351 4 353 350 349 344 341 339
307 306 307 310 316 321 320 312 244 252 280 302 322 339 357 20 71 72 269 247 234 300 17 40 344 2 16 12 306 330 0 341 345 13 8 338 343 1 7 8 29 4 341 340 305 298 317 311 236 246 311 84 25 344 285 249 287 348 353 336 330 305 297 304 296 92 182 260 267 282 279 254 264 276 279 285 299 313 326 341 350 346 340 339 337 335 335 334
305 302 304 302 297 302 296 290 298 291 285 298 333 17 56 15 12 195 257 305 326 310 75 172 307 3 337 318 248 313 327 335 12 34 11 348 349 357 13 11 344 338 347 334 318 319 301 266 261 350 62 61 27 350 330 325 345 4 335 338 345 309 311 313 300 284 249 261 280 299 312 286 263 280 295 294 307 327 345 352 342 328 330 332 333 334 334 337
302 296 294 287 269 267 278 294 302 298 291 300 34 62 78 33 282 220 246 303 277 283 89 172 290 290 299 333 340 322 343 355 15 16 359 22 16 346 335 359 2 324 290 314 327 330 307 271 3 13 21 26 27 17 331 320 338 332 317 29 357 315 306 291 283 284 267 271 291 294 302 290 271 285 298 297 337 13 355 342 334 329 330 332 336 337 339 342
293 278 262 257 252 259 282 300 301 304 304 1 70 49 48 284 259 226 237 250 251 321 61 156 306 318 331 344 301 348 29 345 6 21 358 15 24 346 324 358 13 24 302 324 329 329 314 299 328 16 315 352 16 35 256 296 313 306 283 27 323 309 304 297 300 297 285 286 288 280 278 278 280 299 312 336 18 351 345 345 340 338 335 337 343 344 345 344
263 229 224 235 242 261 285 288 299 322 347 75 68 65 219 254 264 232 232 244 266 331 313 239 27 7 341 308 306 45 79 322 359 36 359 2 6 317 337 4 2 8 19 342 320 306 295 275 238 83 20 64 40 358 275 349 322 298 284 321 317 322 301 289 277 276 281 287 284 272 263 269 291 294 311 6 353 342 350 348 340 337 337 342 345 346 349 350
202 195 205 225 232 247 272 284 292 286 129 81 70 157 206 236 243 198 209 233 145 159 328 352 50 63 314 315 344 2 54 357 9 36 345 332 326 310 56 24 349 0 55 64 306 317 312 277 271 333 341 96 98 353 331 346 301 305 342 307 296 291 281 281 274 271 281 288 288 282 276 287 302 289 310 10 348 342 344 339 335 334 336 340 343 350 355 353
186 197 217 233 236 240 256 277 259 224 101 88 131 210 215 219 203 179 200 248 133 116 78 9 24 126 288 309 307 317 359 358 10 31 326 299 349 53 94 62 347 9 12 126 252 330 350 290 290 321 327 237 102 343 318 272 250 344 338 299 303 287 276 304 296 290 289 281 276 276 281 292 296 286 3 10 343 337 336 333 336 336 337 339 343 353 354 349
178 211 248 236 224 225 233 216 200 187 73 93 193 227 203 191 187 174 185 165 118 88 96 179 223 157 167 225 265 266 342 347 343 10 331 250 17 77 97 43 341 349 327 342 32 338 12 297 294 324 351 305 331 350 329 308 55 59 269 292 320 301 304 319 290 297 299 283 280 277 278 281 273 285 3 351 332 327 326 331 338 337 338 340 343 348 348 345
164 197 275 218 206 207 178 181 188 65 72 149 214 235 202 206 235 231 209 167 110 92 122 216 231 104 175 181 235 264 278 273 237 54 32 200 195 86 78 15 330 333 325 19 76 307 345 290 289 318 358 330 329 13 2 324 329 322 300 310 303 267 300 316 279 294 299 287 289 293 291 283 277 321 339 328 317 314 321 333 335 336 344 346 344 342 340 340
161 168 262 199 187 184 169 166 79 62 97 197 207 224 225 234 260 267 277 278 167 135 174 208 184 167 236 213 237 289 202 173 171 169 207 212 173 97 41 11 347 331 332 27 59 332 356 278 279 309 336 326 316 88 80 330 316 319 326 332 326 296 315 320 287 283 296 295 297 305 291 275 292 331 319 308 302 310 333 336 333 341 350 345 338 333 330 332
159 236 244 166 153 155 143 110 53 130 185 225 212 224 250 153 170 279 306 308 199 170 153 155 168 193 203 252 256 192 165 187 168 179 220 241 201 129 79 152 251 314 358 26 25 18 354 268 274 297 313 301 294 348 357 297 291 297 308 320 327 332 335 325 297 286 306 297 293 300 286 279 304 314 294 295 305 324 336 330 327 337 336 330 328 323 322 324
165 221 203 137 156 154 121 98 279 175 178 220 225 218 241 52 116 208 305 334 74 62 45 122 161 195 174 201 230 172 97 228 189 201 215 227 340 97 145 222 268 291 80 20 315 249 197 208 271 283 287 283 289 302 300 287 288 306 303 327 343 338 338 320 297 300 303 282 280 282 277 283 321 288 286 307 317 324 324 317 316 317 315 319 316 313 316 319
186 206 89 104 166 159 102 149 250 249 217 252 286 254 225 104 173 212 268 326 70 77 21 88 179 215 165 155 159 156 104 188 182 194 207 190 84 121 163 154 50 28 62 9 310 281 173 94 318 290 288 286 286 292 289 307 33 358 311 328 340 320 304 285 282 292 289 282 291 282 271 286 338 290 300 317 316 315 312 305 297 298 308 310 303 308 315 315
142 162 55 60 195 173 142 197 204 222 231 267 316 273 268 159 196 227 201 284 14 115 102 196 201 196 118 102 111 179 230 250 177 164 159 170 137 146 143 75 72 59 36 251 267 306 290 317 29 336 306 305 312 330 327 339 1 338 314 327 332 318 310 301 295 295 288 290 297 289 283 299 305 299 312 317 310 307 306 303 288 288 300 301 301 309 309 310
107 110 40 5 331 80 175 196 153 168 204 213 240 232 220 182 205 227 168 115 52 133 141 166 93 87 94 91 71 55 221 194 213 162 126 77 176 160 69 31 45 92 245 243 242 344 291 267 77 18 296 299 306 313 314 322 336 322 309 320 326 317 307 303 305 299 289 291 291 283 286 293 295 307 316 307 301 303 305 306 299 292 292 290 298 303 304 311
110 20 34 358 352 30 343 345 101 143 164 156 225 228 182 184 234 294 97 117 148 111 95 56 47 67 70 75 53 336 299 226 279 356 18 337 255 211 10 12 341 255 248 251 244 76 281 247 190 204 242 268 281 291 300 307 310 300 301 312 311 298 291 292 297 285 282 289 283 276 288 295 300 311 309 300 300 304 304 302 299 298 298 295 295 294 300 310
134 196 163 148 344 137 309 329 164 188 202 177 199 199 173 183 237 23 60 111 182 87 76 55 34 76 132 115 97 285 300 322 315 325 320 281 227 285 322 18 261 259 242 214 80 67 307 278 255 239 250 262 272 284 292 297 295 292 298 305 293 285 286 291 284 279 285 290 284 289 298 298 301 307 302 299 301 301 299 298 297 297 298 297 296 297 305 311
162 185 159 133 239 179 206 229 191 194 238 215 209 163 168 180 184 182 128 59 329 21 99 110 35 79 161 141 126 241 327 329 304 301 324 322 327 331 339 11 312 315 77 72 45 55 291 280 276 269 270 273 279 286 289 291 288 286 293 295 286 284 289 289 280 281 286 285 288 302 300 294 297 301 298 296 297 297 298 297 295 293 292 291 295 304 311 313
131 158 250 10 178 178 121 176 173 178 202 211 213 190 182 188 192 195 136 101 318 319 143 176 183 154 156 129 117 150 236 292 293 269 127 337 321 333 337 325 327 51 69 15 332 276 247 276 280 281 281 285 292 292 285 285 284 287 294 291 287 288 290 286 283 287 290 288 291 297 294 291 294 295 293 294 294 296 298 295 292 290 288 288 298 308 312 310
146 175 190 72 63 112 42 74 156 175 200 205 222 215 184 192 196 189 113 142 176 235 163 162 168 163 184 170 135 182 215 191 215 237 192 332 304 301 278 285 300 320 321 327 300 268 260 277 292 305 293 292 300 300 290 288 289 295 298 290 287 292 295 293 296 302 300 293 292 293 293 293 294 292 294 297 296 296 297 295 294 291 286 291 303 307 308 307
134 132 144 112 55 147 118 109 149 172 202 204 215 203 184 206 195 158 102 67 145 189 174 148 148 140 151 180 189 227 227 186 188 220 219 230 254 245 237 265 295 313 306 294 261 272 265 273 301 311 286 289 305 309 304 303 303 301 295 289 291 300 305 303 304 304 300 295 296 295 293 292 296 299 301 300 299 297 295 295 296 291 289 298 303 304 303 302
144 115 119 108 165 177 158 142 161 188 205 200 206 199 191 207 178 143 147 37 59 120 146 140 142 121 126 192 226 232 210 186 206 228 222 218 233 237 235 251 261 263 273 282 279 253 216 247 293 291 279 296 305 308 312 314 311 301 290 292 301 305 302 301 299 294 292 294 299 298 292 293 298 300 299 298 297 295 293 295 297 295 297 299 297 296 296 295
Height
841 839 837 836 834 832 830 827 825 822 820 818 816 814 811 809 807 805 802 800 798 795 794 793 791 789 787 786 784 782 779 778 776 776 777 778 778 778 778 778 777 776 776 775 774 773 773 773 773 773 772 773 778 778 779 779 780 781 789 797 796 796 792 783 781 777 773 768 763 762 763 763 760 758 757 755 754 753 753 749 747 746 741 739 738 737 738 737
841 839 837 836 834 832 829 827 825 822 820 818 816 813 811 809 806 804 801 800 797 795 794 792 791 789 787 786 783 781 779 778 777 777 778 779 779 779 779 778 778 777 776 776 775 775 775 776 776 776 775 777 780 780 780 781 781 784 792 798 793 787 781 775 772 769 770 766 761 761 763 764 760 758 758 756 752 753 754 746 744 745 739 737 737 738 738 738
841 839 837 836 833 832 829 827 825 822 820 817 815 813 811 808 805 803 801 799 797 794 793 791 790 788 787 786 782 781 779 778 779 780 780 780 780 779 779 779 779 778 777 777 777 776 777 778 777 777 779 780 783 783 782 782 783 786 792 793 785 777 775 773 770 767 766 764 763 761 763 763 759 759 759 757 753 751 751 742 740 742 736 734 735 737 738 737
841 840 837 835 834 832 829 827 825 822 819 817 814 812 810 808 805 803 800 798 796 794 792 791 790 788 787 785 782 781 778 780 783 783 782 781 781 780 780 780 780 779 778 778 778 778 777 778 777 778 780 782 785 785 784 783 784 787 789 784 776 776 775 768 766 765 763 765 765 762 764 761 756 758 757 756 757 749 740 734 735 735 732 731 733 735 736 736
842 839 837 836 834 832 829 827 824 821 819 816 813 811 809 807 805 803 800 798 795 794 792 791 789 788 787 785 783 780 779 787 787 783 783 783 782 781 781 781 780 780 779 779 779 779 778 778 779 780 784 784 785 785 785 785 785 786 783 775 772 778 775 764 763 764 762 766 765 763 764 758 754 756 753 756 759 746 730 727 730 730 729 730 730 732 734 734
841 839 838 836 834 832 829 827 824 821 818 815 812 810 808 807 804 802 800 797 795 794 792 791 790 789 788 785 784 780 782 791 788 783 784 784 783 783 782 781 781 780 780 780 780 780 780 780 781 784 787 787 788 787 786 786 786 786 780 772 771 776 774 764 763 762 762 766 763 761 760 756 755 753 751 752 749 735 722 723 728 727 728 729 728 730 731 731
841 840 838 835 834 831 829 827 824 821 818 815 812 809 808 806 804 801 799 797 795 794 793 792 790 789 788 786 785 782 785 790 786 784 785 784 784 783 783 782 782 781 781 781 780 781 782 783 784 787 789 788 790 789 787 787 787 788 782 774 770 773 772 765 764 762 763 764 759 759 760 756 754 752 751 744 734 726 721 723 726 725 726 728 727 726 726 726
841 839 837 835 833 831 829 827 824 822 818 815 812 809 807 806 804 801 799 797 795 794 793 791 790 790 789 787 786 788 789 789 787 786 785 785 785 783 783 783 782 782 781 781 782 782 783 785 786 788 790 790 790 789 789 787 786 788 784 777 773 771 768 765 765 762 760 759 757 759 760 753 749 751 749 736 724 720 721 722 722 722 723 724 723 721 722 722
841 839 837 835 833 831 829 827 824 822 819 815 812 808 806 805 803 800 798 796 794 793 792 791 790 789 788 787 788 792 792 789 787 787 786 786 785 784 784 783 782 782 782 782 782 782 783 786 788 788 790 790 790 789 789 789 787 786 783 780 777 771 767 765 763 758 756 755 755 757 755 748 747 750 743 728 720 717 718 720 719 720 719 718 718 717 718 718
841 838 837 835 833 831 828 827 825 822 819 815 811 808 805 804 802 800 797 795 793 792 791 790 789 788 788 787 788 794 792 788 788 787 786 785 784 784 783 783 782 782 782 782 782 783 784 787 787 787 788 789 790 789 789 789 787 785 783 781 778 773 768 766 762 757 756 753 751 755 750 743 746 749 736 719 717 717 717 717 716 718 716 714 714 713 714 715
840 838 837 835 832 830 828 826 825 822 820 815 811 807 804 803 802 799 796 794 792 791 790 790 788 787 787 787 791 794 790 788 788 786 786 785 784 784 783 783 782 782 783 782 782 783 784 786 786 787 788 789 789 787 786 786 785 783 783 781 776 773 768 763 760 758 758 751 748 753 746 740 747 746 730 718 716 716 716 715 715 718 715 713 711 710 711 711
840 838 836 834 832 830 828 826 824 822 819 815 812 807 804 803 801 798 795 793 791 790 789 788 786 786 786 788 791 791 788 788 787 787 786 785 785 784 784 784 783 783 783 783 783 783 784 784 784 786 787 788 789 786 783 783 784 781 783 782 776 775 768 758 757 759 760 752 748 751 740 732 741 738 723 718 716 715 718 717 715 716 714 713 711 709 709 706
840 838 836 834 832 830 828 826 824 822 819 815 811 807 804 802 800 797 794 792 790 789 788 787 786 785 786 790 790 788 788 788 787 787 786 786 785 785 785 785 784 784 784 784 784 783 784 784 784 785 785 786 788 786 781 781 782 779 782 784 779 780 770 756 758 760 759 755 748 752 748 730 724 722 718 717 716 716 718 717 716 714 713 712 709 708 706 703
839 837 836 834 832 830 828 825 823 821 818 815 812 808 804 801 799 796 794 792 789 788 787 786 786 785 787 790 789 788 788 787 787 787 786 786 785 785 785 785 785 785 784 784 784 784 784 783 783 784 785 786 786 783 782 782 783 781 781 783 787 786 769 756 761 760 757 757 751 755 758 736 716 713 714 714 715 719 717 714 714 712 710 708 705 704 702 699
839 837 836 834 832 830 827 825 822 820 818 815 812 807 803 800 798 795 794 792 789 787 786 785 786 785 788 790 788 788 788 787 787 787 786 785 784 784 784 785 785 785 784 784 784 784 784 783 784 785 785 785 784 786 787 784 783 786 783 782 788 788 773 762 762 760 757 756 755 757 755 736 717 710 710 714 716 717 715 709 710 710 706 704 701 699 697 693
838 837 835 834 832 829 827 824 821 820 817 814 811 807 803 800 797 795 794 791 788 786 785 786 786 785 790 792 789 788 788 787 787 786 785 784 784 784 784 784 783 784 784 784 784 784 784 785 787 788 786 785 788 790 788 787 786 789 789 786 787 787 781 771 760 757 760 759 757 759 754 737 720 710 705 709 713 713 712 706 704 705 703 701 698 694 693 688
838 836 835 833 831 829 826 823 821 819 816 814 810 806 803 799 796 794 793 791 787 786 786 786 786 786 790 791 790 790 790 788 786 785 784 784 783 783 783 783 783 784 783 782 783 783 784 786 789 789 788 791 793 790 791 797 795 792 794 792 788 787 787 780 764 755 759 761 759 759 755 740 726 716 703 700 709 712 709 704 700 699 699 696 694 691 689 686
837 835 834 832 830 828 825 823 821 818 816 813 809 805 803 799 795 793 793 790 786 785 786 786 786 791 794 793 793 794 791 788 786 785 784 783 783 783 782 782 783 782 782 783 783 783 785 787 790 788 787 791 791 791 798 802 800 797 798 796 792 790 786 783 773 759 757 759 759 762 756 739 728 720 702 692 704 711 705 701 699 697 696 693 691 689 686 684
836 835 833 831 829 827 825 823 821 819 816 812 808 804 800 797 793 792 791 789 790 792 793 793 795 799 800 795 795 794 790 789 787 785 784 783 782 782 781 782 783 783 784 787 785 786 788 788 790 791 790 790 787 791 797 797 798 799 799 799 798 795 784 777 773 763 760 761 757 759 756 741 731 721 702 691 699 707 704 700 698 698 696 692 690 687 683 681
835 834 832 830 828 826 824 822 821 819 816 812 807 801 802 803 800 799 795 793 799 803 802 802 803 803 799 796 796 793 789 788 786 785 784 783 782 781 782 783 784 784 788 792 790 789 791 791 793 793 791 789 787 790 793 796 800 798 798 798 796 797 788 773 767 760 762 766 756 752 753 743 734 721 704 696 697 700 701 697 694 694 692 689 687 683 680 678
834 832 830 828 827 825 824 822 821 820 817 814 807 805 815 820 817 818 813 803 803 805 804 803 805 803 799 798 798 795 793 789 786 785 784 783 782 782 783 784 785 788 791 795 793 790 793 794 791 788 787 788 787 788 792 796 799 797 797 796 794 798 788 771 766 760 762 768 755 750 754 745 733 718 704 701 700 697 697 695 689 687 685 683 683 680 678 675
833 831 829 827 825 825 823 822 821 820 819 814 810 814 824 827 825 827 826 816 806 804 805 803 804 802 799 799 798 797 797 792 787 785 784 784 783 784 786 787 790 793 793 794 793 792 795 793 785 782 786 790 788 787 789 793 797 798 797 798 797 792 783 772 765 759 762 767 757 752 757 748 730 715 705 703 700 695 692 690 686 683 681 679 678 679 678 674
832 830 828 826 824 824 823 822 822 820 819 816 816 821 825 826 826 826 828 824 813 804 803 803 802 801 799 798 797 797 796 795 792 787 785 786 785 789 790 789 792 793 793 793 793 797 797 787 779 782 788 788 787 786 786 788 793 794 793 796 792 783 783 780 766 759 762 763 756 755 760 752 730 713 705 698 693 691 687 683 681 680 682 680 678 681 680 677
830 829 827 825 824 823 822 823 822 820 820 819 821 824 826 826 826 825 825 825 817 806 802 802 801 801 799 797 797 797 797 798 796 789 788 788 788 791 790 790 794 793 792 793 795 797 792 781 778 786 789 786 785 785 783 785 789 790 789 790 787 780 781 780 772 769 768 759 750 754 761 752 732 716 705 694 688 688 683 679 675 674 681 684 681 682 681 679
829 828 826 824 823 823 823 822 822 822 821 821 823 825 826 826 824 825 824 822 816 806 802 802 801 801 799 798 798 797 798 797 795 792 790 790 791 792 790 792 795 793 791 793 796 793 786 782 782 784 784 785 787 784 782 785 789 790 784 782 781 777 777 779 779 780 779 764 745 748 760 748 727 715 705 696 691 688 683 679 674 670 675 682 682 682 682 685
829 827 825 824 823 822 823 822 823 823 821 823 825 825 826 825 824 825 822 819 813 804 803 802 801 801 799 800 799 798 801 797 793 794 792 791 792 792 793 794 794 794 791 792 796 790 783 782 784 785 784 785 787 785 784 785 791 790 778 774 778 779 781 782 781 783 784 768 743 746 760 750 733 718 705 700 697 691 686 682 678 674 674 680 686 689 691 692
828 826 825 824 823 823 823 824 824 822 823 826 825 825 826 824 825 824 820 822 816 805 804 802 802 803 801 803 801 801 806 800 793 794 793 794 793 793 796 796 795 794 791 796 799 790 783 781 783 785 784 785 787 787 784 783 791 787 772 772 776 777 780 779 780 782 777 767 749 744 753 754 744 721 703 704 701 694 691 687 682 678 680 687 694 696 695 695
827 826 825 824 824 824 824 825 824 823 826 826 824 825 824 824 827 822 822 831 821 803 803 803 801 802 802 803 803 803 806 802 799 798 794 795 794 793 796 795 796 795 792 801 802 790 785 784 783 785 787 789 787 783 782 784 787 778 769 776 777 777 780 778 778 775 771 771 757 739 744 752 740 714 701 704 702 696 694 689 683 684 691 696 697 696 695 694
827 825 824 825 825 825 826 825 824 825 825 824 824 824 822 825 825 821 830 835 815 800 804 803 801 804 805 804 804 805 804 802 805 802 795 796 796 795 797 796 798 796 793 798 799 791 787 787 786 787 788 788 781 779 782 783 782 776 774 778 778 778 779 777 774 769 771 774 755 737 742 747 731 711 705 705 700 698 694 686 688 696 700 699 697 696 694 693
826 825 825 825 825 826 826 825 824 824 823 823 823 822 823 825 822 828 839 830 811 806 806 803 806 811 811 810 808 808 806 805 807 804 800 800 797 796 798 797 798 798 796 796 796 792 790 789 787 786 784 781 781 782 782 781 781 779 776 776 777 776 774 774 771 771 779 771 748 737 741 745 731 707 702 702 696 694 692 692 700 705 703 700 699 697 693 692
826 825 825 825 826 826 825 825 824 823 823 822 821 822 822 821 825 837 839 819 809 811 806 807 815 815 815 818 816 812 810 809 810 810 809 806 802 801 802 802 803 802 800 799 795 791 791 788 783 782 782 781 783 782 779 780 780 778 776 778 784 779 772 772 768 770 777 763 742 734 736 744 732 701 695 698 692 692 697 704 710 708 704 702 699 696 693 691
825 825 825 825 826 826 826 826 824 823 822 821 821 821 820 826 833 833 824 810 809 812 810 815 819 817 818 820 819 818 815 814 815 816 818 816 812 811 814 818 818 812 808 805 800 794 790 783 779 781 784 786 787 786 783 778 777 781 784 786 792 790 782 777 769 766 765 749 735 734 737 739 722 699 696 697 695 701 705 708 709 706 705 701 697 694 691 690
825 825 825 825 825 826 826 825 823 823 822 820 821 819 822 837 838 826 819 813 811 812 815 818 818 820 821 816 818 822 819 819 819 818 820 820 818 818 821 826 825 820 814 809 806 803 793 783 781 781 784 787 788 793 794 787 784 789 788 789 797 800 796 786 772 766 761 748 737 738 742 735 715 700 697 697 703 709 708 706 704 702 701 698 695 694 691 690
824 824 825 825 826 826 825 825 823 822 822 821 820 819 828 840 832 823 822 817 814 816 818 820 820 819 817 816 822 823 819 822 824 821 820 820 819 819 821 825 825 822 819 812 810 812 803 790 784 781 785 789 790 796 800 795 792 788 784 788 793 798 801 794 784 780 772 758 746 743 742 730 713 701 695 700 708 706 703 701 697 695 694 692 693 694 693 691
824 824 825 825 826 826 825 825 823 822 822 820 820 824 833 834 824 821 821 816 818 819 817 820 820 816 816 819 825 825 822 824 827 825 821 821 822 822 825 830 831 828 824 818 814 816 811 794 782 783 786 789 794 798 798 797 794 785 782 787 790 797 804 799 790 779 768 761 752 742 731 715 704 696 695 705 706 699 699 697 694 694 691 692 694 694 695 695
824 824 825 825 825 825 825 825 823 823 822 820 824 828 828 823 819 819 818 817 820 818 816 817 816 816 818 820 824 826 824 824 827 827 824 824 824 826 832 837 838 834 830 829 824 824 823 800 781 786 789 790 800 800 796 799 796 785 786 793 794 798 799 796 786 766 761 766 755 736 723 713 708 699 698 708 705 698 700 698 696 696 694 696 698 699 701 701
824 825 825 825 825 824 824 824 824 824 822 821 824 826 821 817 817 819 819 821 822 819 819 819 817 817 820 822 823 825 824 824 827 828 827 827 825 828 837 840 841 838 836 838 830 828 835 813 783 785 790 790 799 799 791 793 793 792 798 798 794 791 787 790 789 777 776 774 753 736 730 727 722 708 703 711 709 705 705 702 700 698 696 698 699 703 706 705
824 826 825 824 823 823 824 823 824 824 822 823 823 822 821 818 818 821 821 822 822 819 820 820 819 820 823 825 825 824 826 826 828 830 829 827 828 832 839 842 842 840 838 839 832 830 839 823 790 782 791 793 794 795 793 791 792 798 803 799 796 800 800 797 794 789 789 780 758 744 736 727 720 710 712 721 718 713 711 709 709 707 704 704 704 705 705 703
824 826 824 822 823 823 823 822 825 825 823 824 821 818 820 819 819 822 822 822 821 819 820 820 820 823 825 826 826 825 826 826 829 833 829 824 828 837 844 845 845 843 839 837 836 834 837 829 802 783 792 800 791 791 802 802 796 793 797 798 796 801 804 802 797 791 791 786 768 758 750 732 719 718 725 728 722 718 718 715 715 714 715 716 715 712 707 704
824 824 822 821 822 822 823 823 825 825 823 825 823 819 821 820 818 821 822 822 820 818 820 822 823 825 825 825 827 828 829 829 829 832 831 825 827 841 849 849 846 845 842 838 839 840 839 838 820 796 798 806 795 796 810 813 805 799 802 806 804 802 801 803 800 787 787 793 784 781 776 748 729 731 732 728 723 721 722 719 717 719 722 722 720 716 712 707
824 822 820 821 821 822 823 823 826 828 826 826 826 824 823 819 817 821 822 821 819 818 819 821 823 824 823 824 827 828 831 831 829 830 830 824 824 837 849 850 847 846 845 842 842 844 843 843 835 820 815 812 799 800 808 810 809 809 813 813 811 811 812 820 817 793 790 799 793 795 787 753 737 739 732 727 724 723 725 724 722 725 725 722 718 715 711 706
822 820 819 821 821 821 822 824 831 835 829 824 824 823 821 819 818 820 821 819 818 819 818 820 823 824 824 826 828 830 830 831 830 829 827 827 830 841 849 850 848 845 844 845 843 842 842 845 846 836 821 809 802 802 804 805 806 808 811 811 812 816 819 830 830 811 805 803 792 793 781 748 737 737 730 729 728 726 728 726 725 726 722 719 716 712 708 704
820 819 820 821 821 822 822 825 832 835 830 826 826 824 821 821 820 820 820 819 818 819 819 820 823 823 825 828 829 831 831 830 831 828 827 832 840 848 850 849 847 845 845 846 844 841 841 843 850 844 821 803 798 800 800 801 805 809 810 810 816 822 821 824 822 813 812 806 798 799 779 747 737 736 732 733 731 729 726 722 725 724 717 716 713 708 705 701
820 821 822 823 822 823 822 821 823 827 829 829 828 824 822 822 822 820 820 819 819 821 820 821 823 823 827 832 831 832 832 829 829 831 833 836 842 850 851 847 847 846 846 846 843 842 841 840 848 854 837 812 801 802 803 802 808 815 815 814 817 818 817 816 813 811 811 802 796 797 779 752 741 737 737 737 732 727 721 718 720 719 714 713 709 704 703 699
820 821 823 824 823 824 824 821 819 821 828 830 826 823 822 822 823 823 821 822 824 824 822 823 826 827 830 834 833 833 834 831 831 835 839 840 842 849 851 846 846 846 844 844 842 843 845 843 848 860 857 839 827 824 821 817 819 821 818 817 819 817 815 815 816 818 813 800 793 791 776 755 742 740 742 738 730 725 719 715 714 712 711 710 706 703 699 695
817 821 824 826 825 825 827 827 824 822 825 828 824 823 822 820 822 824 823 823 825 826 826 827 829 829 831 833 833 834 837 837 837 839 842 844 843 845 848 847 845 844 843 843 842 844 847 846 845 852 853 843 837 834 829 828 830 828 822 822 823 817 813 816 822 821 809 799 793 784 771 758 747 746 744 735 728 724 718 713 710 707 706 705 702 700 695 692
818 821 822 823 825 827 828 829 828 824 823 823 819 819 822 821 823 825 824 824 825 826 829 833 833 830 830 834 836 838 841 842 842 842 843 845 844 844 846 846 845 843 841 842 844 846 851 850 845 847 845 836 835 836 832 832 832 827 823 825 822 814 812 818 821 812 803 801 791 775 769 764 753 747 742 732 727 723 716 712 707 704 702 700 699 696 691 687
817 818 817 818 820 823 825 825 825 825 824 822 819 819 822 823 823 824 824 826 827 826 826 832 838 836 834 838 838 840 844 842 842 846 847 846 847 847 846 843 843 843 841 844 846 847 854 852 843 844 842 832 832 836 833 831 829 823 823 823 817 811 811 815 811 801 798 798 785 771 769 764 752 745 739 730 724 719 714 709 704 701 699 697 695 692 687 683
816 817 818 819 818 819 822 822 822 825 825 823 822 822 822 822 822 822 824 826 827 828 826 828 837 841 840 841 840 842 844 841 842 848 850 851 852 852 850 846 844 844 844 848 848 847 854 853 841 841 840 830 831 835 830 828 825 820 821 818 810 806 807 805 800 793 791 787 776 769 766 757 748 742 734 725 720 715 710 704 700 699 697 694 692 688 684 680
812 813 815 818 819 822 825 825 824 825 826 824 823 821 821 822 820 821 825 824 824 829 830 830 838 844 844 843 844 844 842 841 845 848 849 853 854 853 854 851 846 846 846 848 849 847 852 852 840 839 843 834 829 829 826 824 822 820 819 812 803 801 800 797 792 788 786 782 772 767 763 754 743 735 728 722 715 710 705 700 697 696 693 691 688 684 680 677
809 810 810 813 818 822 825 826 826 825 825 825 822 820 820 820 819 820 825 826 825 827 830 833 839 845 847 847 846 843 841 843 846 846 847 851 851 850 852 849 846 849 848 848 850 847 850 851 842 844 849 838 826 825 823 819 818 818 814 805 798 797 796 794 791 787 784 778 770 767 764 753 739 730 726 719 711 706 700 695 694 693 692 690 685 680 676 672
809 809 807 811 818 822 823 825 826 824 821 819 818 818 818 817 818 819 822 828 831 830 830 833 838 841 845 847 844 840 841 842 843 844 845 846 846 846 847 846 846 850 851 849 849 847 847 849 848 849 849 838 827 825 823 822 824 821 808 797 796 797 795 793 790 785 780 773 769 766 757 745 736 730 726 718 711 703 693 690 692 691 689 686 681 676 671 666